Wind_Speed
16 15 14 14 15 14 13 13 12 12 12 12 11 11 11 11 11 11 10 10 9 8 8 8 9 9 10 10 9 9 9 9 9 8 8 8 8 9 9 9 8 8 7 6 6 6 6 5 5
16 15 14 15 16 13 13 13 13 12 12 11 11 11 11 10 10 10 10 9 8 8 8 9 9 9 9 9 8 8 8 8 8 7 7 7 8 8 9 8 8 7 6 6 6 6 5 4 4
16 15 15 16 15 13 13 13 12 12 12 12 11 11 10 10 9 9 9 8 8 7 7 7 8 8 8 8 7 6 7 7 7 7 6 7 7 8 8 7 7 6 6 6 5 6 5 4 4
15 15 16 16 15 14 14 13 13 13 12 12 12 11 11 9 8 8 8 8 7 7 7 7 7 7 7 7 7 6 5 6 6 6 6 6 7 7 7 6 6 5 6 5 5 5 5 4 4
15 15 17 15 14 14 15 14 13 13 12 11 12 11 10 10 8 8 8 8 7 7 7 6 6 7 7 6 6 5 5 5 5 5 5 6 6 6 6 6 6 5 4 4 4 5 4 4 3
15 16 15 14 14 15 15 14 14 12 11 11 11 10 10 9 9 8 7 7 6 6 6 5 5 5 5 6 6 5 5 5 5 5 5 4 5 5 5 5 5 5 4 4 4 4 4 3 2
15 15 14 14 14 14 14 14 13 13 12 11 10 10 9 9 8 7 7 7 6 5 5 4 4 4 4 5 5 5 5 5 5 5 4 4 4 4 4 4 4 4 4 4 4 4 4 3 3
13 14 13 13 13 13 13 13 13 13 12 11 10 10 9 8 8 7 7 6 6 6 5 5 4 4 3 4 4 4 4 4 4 4 4 3 3 3 4 4 3 3 3 3 4 5 5 4 4
12 13 11 12 12 12 12 13 13 13 12 11 10 9 8 8 8 7 6 6 5 5 4 4 4 3 3 3 4 3 4 4 4 4 4 4 3 3 3 3 3 3 3 4 4 4 5 5 5
11 11 10 11 12 12 12 12 12 12 12 11 10 10 8 7 7 7 7 5 5 4 4 3 2 2 2 2 2 3 3 4 4 4 5 5 4 4 3 3 3 4 4 4 5 5 5 6 6
10 10 10 10 11 11 11 12 11 11 11 10 9 9 9 8 7 7 7 6 5 4 3 2 1 2 2 1 2 2 3 4 4 5 5 5 4 4 4 4 4 5 5 5 5 6 6 7 7
9 8 9 10 10 10 10 10 10 10 10 10 10 9 8 8 7 7 7 6 4 4 3 2 1 1 1 0 1 1 3 4 5 5 4 5 5 5 5 5 5 5 6 6 6 7 7 7 7
8 8 8 9 9 9 9 9 9 9 9 9 9 8 7 7 7 6 5 5 4 4 3 2 2 1 1 1 2 2 3 3 4 5 5 5 5 5 6 6 6 6 6 6 6 7 8 8 7
6 6 6 7 7 8 8 8 8 8 8 9 8 8 7 6 6 5 5 4 4 3 3 3 3 3 2 2 2 3 3 4 3 4 5 6 6 6 6 7 7 7 7 6 7 7 8 9 9
5 5 5 5 5 6 7 7 6 7 7 8 7 7 6 6 5 4 3 3 3 2 3 3 3 3 2 3 3 3 4 5 4 4 5 6 6 6 7 6 6 6 7 7 7 8 8 9 10
3 3 3 4 4 5 6 6 5 5 5 6 6 6 6 6 5 4 3 3 2 2 2 3 3 3 3 4 4 4 4 4 4 5 5 6 6 6 6 6 6 7 7 7 8 8 8 10 10
1 1 1 2 3 3 4 4 5 5 5 5 5 5 5 5 4 4 4 3 3 3 3 3 4 4 5 4 4 4 4 4 5 5 6 6 7 7 7 7 8 8 8 8 9 9 9 10 11
3 1 1 1 2 2 3 4 5 6 6 6 5 5 5 4 3 4 4 4 4 4 4 4 4 4 5 5 5 5 4 4 5 5 6 7 7 8 8 8 8 8 8 8 9 9 9 10 10
5 4 3 3 3 2 3 4 5 6 6 7 6 5 5 4 4 5 5 5 5 5 5 5 5 5 5 5 5 5 5 5 5 5 6 7 7 8 8 9 9 8 8 8 8 9 10 10 11
7 6 5 6 5 4 4 4 5 5 6 7 7 6 5 5 5 6 5 5 6 7 6 6 5 5 5 5 5 6 5 5 6 5 6 7 8 9 9 9 9 9 9 9 9 9 9 10 10
9 8 8 7 6 6 6 6 6 6 6 6 7 7 7 7 6 7 6 6 6 7 7 7 6 6 6 6 6 6 6 6 6 6 6 6 8 9 9 9 9 9 10 10 10 10 9 9 10
11 11 10 9 7 7 7 7 8 7 7 7 7 7 7 7 7 8 8 8 8 8 9 9 8 8 7 6 6 7 7 7 7 7 7 7 8 8 8 8 9 9 11 11 11 11 11 11 11
13 12 11 10 9 8 9 8 8 8 7 6 6 7 8 7 8 8 9 9 9 9 10 9 10 9 8 8 7 7 8 8 8 8 9 9 9 9 9 10 10 10 10 11 12 12 12 12 13
14 13 12 11 10 10 10 8 8 8 7 6 7 8 9 9 9 9 9 9 10 10 11 11 10 10 9 9 9 9 9 9 9 9 10 11 11 11 11 11 11 11 11 12 13 13 13 14 14
16 13 12 12 12 12 11 10 9 8 7 7 8 9 10 10 10 10 10 10 11 11 12 11 11 11 10 10 10 11 10 10 10 10 11 12 12 12 12 12 13 13 13 13 13 14 15 15 16
18 16 14 13 13 13 14 12 11 10 10 10 10 11 11 11 11 11 11 11 11 12 12 12 12 11 11 11 12 12 12 12 12 12 13 13 13 13 14 14 14 15 15 15 16 16 16 17 17
20 19 17 16 16 15 15 14 13 12 12 12 12 12 12 12 12 12 12 12 11 12 12 13 12 12 12 13 13 13 13 14 14 15 15 15 15 15 15 15 15 16 16 17 17 17 18 19 19
22 21 20 18 18 17 17 16 15 14 14 14 14 14 14 13 14 14 13 13 13 13 14 14 14 13 14 14 15 15 15 15 15 16 16 16 17 17 16 17 17 17 18 19 19 19 19 20 20
24 23 22 21 20 18 18 18 18 17 16 16 16 16 16 16 16 16 15 15 15 15 16 16 14 14 15 15 15 15 16 16 16 18 19 19 19 18 18 18 19 19 19 20 21 21 21 21 22
25 24 24 23 23 21 20 20 20 19 18 18 18 18 18 18 18 18 17 17 17 17 17 17 16 15 16 16 17 17 18 17 18 19 20 20 20 20 20 20 21 21 21 21 22 22 23 22 23
Wind_Direction
88 88 87 89 85 86 91 91 91 93 92 92 91 89 87 86 87 89 93 98 96 94 89 100 118 129 124 126 127 127 126 123 123 126 124 125 122 120 119 118 122 124 125 132 135 139 137 136 129
86 85 85 84 86 91 93 92 91 92 94 91 88 86 86 88 90 89 93 99 97 94 91 102 109 117 122 127 128 130 130 126 125 127 125 126 126 124 119 123 129 131 129 130 134 143 143 138 128
85 84 83 83 90 94 93 91 91 90 89 89 87 85 85 89 91 90 94 97 97 96 98 103 104 109 123 131 131 132 136 137 134 133 130 131 135 131 126 128 137 136 135 137 139 140 145 145 136
85 84 81 82 86 86 86 86 88 87 86 87 87 85 84 86 89 93 98 102 103 102 104 104 103 108 121 132 135 135 145 149 147 140 135 135 136 139 140 141 139 138 145 143 146 143 142 146 145
86 83 79 79 81 81 82 83 83 82 82 84 84 84 82 83 85 91 100 107 110 108 107 108 110 113 114 126 131 136 141 147 149 155 146 141 142 143 146 155 151 149 151 165 163 155 150 150 151
86 83 83 79 76 77 77 78 77 75 76 78 80 81 81 82 84 89 96 104 112 115 115 113 118 117 114 126 135 138 148 156 159 156 156 152 153 145 151 158 159 165 170 170 178 180 167 173 173
88 87 83 78 76 75 74 72 73 72 72 75 77 78 80 80 84 90 95 99 106 117 124 122 125 124 127 129 134 138 149 160 163 158 155 157 154 160 162 169 169 168 182 196 209 207 196 189 186
89 85 79 79 77 74 72 70 69 69 70 75 76 76 75 77 83 88 91 96 104 113 122 129 130 136 140 145 151 158 159 171 175 177 178 181 179 176 174 178 182 187 195 208 216 223 216 209 208
89 84 81 80 77 73 70 68 66 67 67 69 73 74 74 72 78 82 84 94 105 113 118 127 134 139 145 155 167 174 170 184 191 197 198 203 197 190 184 181 187 208 224 237 237 232 230 228 223
91 89 83 78 75 73 69 66 66 65 64 67 68 70 71 71 71 76 81 90 103 106 112 126 138 156 157 177 176 172 182 205 212 213 209 211 204 201 198 200 214 230 238 246 255 251 244 233 228
95 93 84 78 75 73 71 66 65 63 61 62 64 66 65 65 67 70 77 86 93 101 110 109 135 172 190 198 195 199 199 204 208 207 205 211 214 220 223 228 238 244 246 249 256 246 243 237 233
95 91 83 77 75 74 70 65 63 62 57 57 62 64 63 59 60 64 71 80 82 88 96 88 87 82 66 152 246 244 224 210 213 217 226 225 227 233 236 244 251 255 253 251 253 247 247 243 239
98 91 83 77 72 71 68 62 59 57 53 52 57 59 59 57 56 60 66 68 73 77 74 49 32 13 355 308 300 281 266 246 241 239 242 238 241 245 243 242 249 251 248 249 241 244 248 246 246
102 90 81 76 69 66 61 58 54 53 47 45 50 53 54 48 49 54 57 59 65 63 58 42 20 2 359 334 315 293 270 263 257 248 247 248 250 246 250 247 246 249 250 255 251 246 249 250 247
99 84 67 66 61 55 53 51 52 45 44 44 46 47 44 36 31 34 37 36 41 45 40 32 15 357 338 335 318 308 285 275 271 263 258 261 264 261 267 264 256 260 262 263 258 255 255 256 253
96 65 39 41 51 47 46 40 37 35 34 40 36 34 35 29 19 17 17 16 16 8 2 6 6 357 336 324 317 310 303 285 272 267 270 272 276 277 278 278 276 274 268 266 265 264 259 263 260
99 66 3 1 34 37 40 26 16 14 9 17 18 14 11 16 9 4 357 356 356 339 329 339 338 333 333 328 320 317 306 292 280 273 276 275 275 278 279 278 276 274 272 265 265 268 269 265 263
223 228 253 294 338 3 20 9 4 1 360 359 357 354 354 359 1 354 346 348 348 331 321 338 341 340 336 335 329 324 322 310 297 286 280 278 282 279 280 284 286 280 278 272 269 269 267 270 270
233 244 256 273 279 290 321 335 344 354 356 358 352 345 344 350 356 348 338 342 346 338 332 328 330 332 331 332 337 330 322 317 308 294 290 286 288 290 286 281 280 283 279 278 276 275 272 270 271
248 256 266 272 272 271 288 308 319 328 335 343 346 340 330 328 331 334 335 333 333 329 329 326 323 322 322 326 329 328 319 313 315 312 304 301 293 290 289 282 277 278 276 276 279 282 279 271 269
253 255 261 270 279 287 296 308 307 316 320 329 336 333 323 323 323 326 325 322 323 326 328 325 319 315 309 314 318 318 318 316 316 316 313 307 307 300 288 282 277 276 275 276 279 281 282 279 274
253 257 262 269 276 286 288 296 299 304 313 319 325 327 319 315 321 323 324 324 319 321 322 324 319 318 316 314 314 314 313 314 310 312 312 310 312 308 301 291 279 278 277 275 276 278 278 281 281
248 256 260 264 271 275 279 286 292 298 307 310 311 317 322 316 317 318 319 321 322 323 321 321 318 316 315 312 308 309 310 312 309 308 311 313 312 309 307 297 287 281 278 276 274 276 279 279 279
249 256 263 267 271 271 272 276 288 291 301 305 305 309 312 313 311 312 314 317 319 319 316 315 314 314 310 305 301 303 306 308 309 308 309 310 309 308 306 300 292 287 285 282 276 277 276 276 277
246 252 264 269 270 270 271 271 277 280 284 290 296 303 305 304 308 309 309 309 312 312 312 311 311 308 304 298 297 297 300 302 303 307 309 308 306 305 306 300 296 290 290 291 285 282 280 279 280
246 246 249 256 265 273 275 272 275 278 280 281 286 293 294 294 298 299 302 302 304 306 308 310 309 307 303 299 297 295 295 297 299 302 306 306 306 304 301 297 295 291 289 290 286 282 282 282 282
245 245 248 256 263 266 269 273 277 276 279 282 283 285 288 289 293 295 295 295 299 303 304 307 307 303 298 296 295 296 295 295 298 300 301 302 303 302 300 296 292 290 288 286 285 283 283 282 282
244 246 249 252 259 265 273 277 277 273 278 280 280 280 283 285 290 292 292 291 292 296 298 302 302 303 300 297 295 296 296 293 298 300 300 300 301 301 299 296 291 289 287 286 284 282 282 281 281
245 246 249 254 258 262 271 276 273 272 274 276 277 278 281 282 286 287 289 287 289 291 293 294 296 299 298 298 298 298 296 294 297 300 300 299 299 298 296 294 292 290 287 285 284 283 282 282 280
247 249 251 255 260 261 266 274 272 273 273 273 274 275 277 280 283 285 287 285 285 288 290 291 291 294 296 298 299 298 297 294 296 296 296 296 295 295 294 293 290 288 287 285 282 282 284 283 282
Height
5906 5905 5906 5906 5907 5908 5906 5906 5905 5904 5903 5902 5902 5902 5901 5901 5902 5903 5900 5898 5898 5897 5894 5891 5892 5895 5896 5897 5898 5898 5899 5899 5899 5899 5899 5900 5900 5900 5901 5901 5902 5902 5902 5903 5903 5904 5904 5905 5905
5908 5908 5909 5909 5909 5909 5908 5907 5906 5905 5904 5903 5903 5903 5902 5902 5902 5901 5900 5900 5899 5898 5897 5895 5896 5897 5898 5899 5899 5899 5899 5900 5900 5900 5900 5901 5901 5901 5901 5902 5902 5903 5903 5904 5904 5904 5905 5905 5905
5910 5910 5911 5911 5911 5911 5910 5909 5907 5906 5905 5905 5904 5904 5904 5903 5902 5902 5901 5901 5900 5900 5899 5899 5899 5899 5899 5900 5900 5900 5900 5901 5901 5901 5901 5901 5901 5902 5902 5902 5903 5903 5904 5904 5905 5905 5905 5906 5906
5913 5913 5914 5914 5913 5912 5911 5910 5909 5908 5907 5906 5905 5905 5904 5904 5903 5903 5902 5902 5902 5901 5901 5900 5901 5900 5900 5901 5901 5901 5901 5901 5902 5902 5901 5901 5902 5903 5903 5903 5903 5904 5904 5905 5905 5906 5906 5906 5906
5915 5916 5917 5917 5915 5914 5912 5911 5910 5909 5908 5907 5907 5906 5905 5905 5904 5903 5903 5903 5903 5902 5902 5902 5902 5902 5902 5901 5902 5902 5902 5902 5902 5902 5902 5902 5903 5903 5903 5903 5904 5904 5905 5905 5906 5906 5906 5906 5907
5918 5918 5920 5919 5917 5916 5914 5913 5911 5910 5910 5909 5908 5907 5906 5905 5905 5904 5904 5904 5903 5903 5903 5903 5903 5903 5902 5902 5902 5903 5903 5903 5903 5903 5903 5903 5903 5904 5904 5904 5904 5904 5905 5906 5906 5906 5906 5907 5907
5921 5921 5921 5921 5919 5918 5916 5915 5913 5912 5911 5910 5909 5908 5907 5906 5906 5905 5905 5905 5904 5904 5904 5904 5904 5903 5903 5903 5903 5903 5903 5903 5903 5903 5904 5904 5904 5904 5904 5904 5904 5905 5905 5905 5906 5906 5906 5906 5906
5922 5924 5923 5922 5921 5920 5918 5916 5915 5914 5913 5912 5911 5910 5909 5908 5907 5906 5906 5905 5905 5905 5905 5904 5904 5904 5903 5903 5903 5903 5903 5903 5903 5904 5904 5904 5904 5904 5904 5904 5904 5905 5905 5905 5905 5906 5906 5906 5906
5924 5927 5925 5924 5922 5921 5919 5918 5917 5915 5914 5913 5912 5911 5910 5909 5908 5907 5907 5907 5906 5906 5905 5905 5904 5904 5904 5904 5903 5903 5903 5903 5904 5904 5904 5904 5904 5904 5904 5904 5904 5905 5905 5905 5905 5905 5905 5905 5906
5926 5927 5926 5925 5924 5922 5921 5919 5918 5917 5916 5914 5913 5912 5911 5910 5909 5908 5908 5907 5907 5907 5906 5906 5905 5905 5904 5904 5903 5903 5903 5903 5903 5904 5904 5904 5904 5904 5904 5904 5904 5904 5904 5904 5903 5903 5904 5904 5905
5928 5928 5927 5926 5925 5923 5922 5921 5919 5918 5917 5916 5915 5913 5912 5911 5910 5909 5909 5908 5908 5907 5907 5906 5906 5905 5904 5904 5903 5903 5903 5903 5903 5903 5903 5904 5904 5904 5904 5904 5903 5903 5903 5903 5902 5901 5902 5903 5904
5929 5929 5928 5927 5926 5925 5923 5922 5921 5920 5919 5917 5915 5914 5913 5912 5912 5911 5910 5910 5909 5908 5908 5907 5906 5906 5905 5904 5904 5903 5903 5903 5903 5903 5903 5903 5903 5903 5903 5903 5903 5902 5902 5902 5901 5901 5902 5902 5902
5930 5930 5929 5928 5927 5926 5925 5924 5922 5921 5920 5918 5917 5915 5915 5914 5913 5912 5911 5910 5910 5909 5908 5908 5907 5906 5905 5904 5904 5903 5903 5902 5902 5902 5902 5902 5902 5902 5902 5902 5902 5901 5901 5901 5900 5900 5900 5901 5901
5931 5931 5930 5929 5928 5927 5926 5925 5924 5922 5921 5919 5918 5917 5916 5915 5914 5913 5912 5911 5911 5910 5909 5908 5907 5906 5905 5904 5904 5903 5902 5902 5901 5901 5901 5901 5901 5901 5901 5900 5900 5900 5899 5899 5899 5899 5899 5899 5900
5932 5932 5932 5930 5929 5928 5928 5927 5925 5924 5922 5920 5919 5918 5917 5916 5915 5914 5913 5912 5912 5911 5910 5908 5907 5906 5905 5904 5903 5902 5902 5901 5901 5900 5900 5900 5900 5899 5899 5899 5899 5899 5899 5899 5898 5898 5898 5898 5898
5932 5933 5933 5932 5930 5929 5930 5929 5927 5925 5923 5922 5920 5919 5918 5917 5916 5915 5914 5913 5912 5911 5910 5909 5908 5906 5905 5904 5903 5902 5901 5900 5900 5900 5900 5899 5899 5898 5898 5898 5898 5897 5897 5897 5897 5896 5896 5896 5896
5933 5934 5934 5933 5931 5930 5930 5929 5927 5925 5924 5922 5921 5920 5918 5917 5916 5915 5914 5913 5912 5911 5910 5909 5908 5906 5905 5904 5903 5902 5901 5900 5899 5899 5899 5898 5898 5897 5897 5896 5896 5895 5895 5894 5895 5895 5894 5894 5894
5933 5934 5933 5932 5931 5930 5929 5929 5927 5926 5924 5923 5922 5920 5919 5917 5916 5915 5914 5913 5912 5911 5910 5909 5907 5906 5905 5904 5903 5902 5900 5899 5899 5898 5898 5897 5896 5896 5895 5895 5894 5893 5893 5893 5893 5893 5892 5892 5892
5931 5932 5932 5932 5930 5930 5929 5928 5927 5926 5925 5923 5922 5920 5919 5918 5916 5915 5914 5913 5912 5911 5910 5908 5907 5906 5904 5903 5902 5901 5900 5899 5898 5897 5896 5896 5895 5894 5893 5893 5892 5891 5891 5891 5891 5891 5890 5890 5890
5929 5930 5931 5930 5929 5929 5928 5928 5927 5925 5925 5923 5922 5920 5919 5918 5917 5915 5914 5913 5912 5910 5909 5908 5907 5905 5904 5903 5902 5901 5899 5898 5897 5896 5895 5894 5893 5892 5891 5890 5890 5890 5889 5889 5889 5889 5888 5887 5887
5927 5928 5928 5928 5927 5927 5927 5927 5926 5925 5924 5923 5921 5920 5919 5917 5916 5915 5913 5912 5911 5910 5908 5907 5906 5904 5903 5902 5901 5900 5899 5897 5896 5895 5894 5893 5892 5890 5889 5888 5888 5887 5887 5887 5887 5887 5887 5886 5886
5925 5925 5925 5925 5926 5927 5926 5927 5925 5924 5922 5922 5920 5919 5918 5917 5916 5914 5913 5911 5910 5909 5907 5906 5904 5903 5902 5901 5900 5899 5898 5896 5895 5894 5893 5891 5890 5888 5887 5886 5885 5885 5885 5885 5885 5884 5884 5884 5884
5922 5922 5922 5923 5923 5924 5924 5924 5925 5922 5921 5920 5919 5918 5917 5916 5914 5913 5912 5910 5909 5907 5905 5904 5903 5901 5900 5899 5898 5897 5896 5895 5894 5892 5891 5890 5888 5887 5885 5884 5883 5883 5882 5882 5882 5882 5882 5881 5881
5918 5919 5920 5920 5922 5923 5922 5922 5923 5921 5920 5919 5918 5917 5916 5914 5913 5912 5910 5909 5907 5906 5904 5902 5901 5899 5898 5897 5896 5895 5894 5893 5892 5891 5889 5888 5887 5885 5883 5882 5881 5880 5880 5879 5879 5879 5878 5878 5878
5915 5918 5920 5920 5920 5920 5920 5919 5920 5919 5918 5917 5916 5915 5914 5912 5911 5910 5908 5907 5905 5904 5902 5900 5899 5897 5896 5895 5894 5893 5892 5891 5890 5889 5887 5886 5884 5883 5881 5880 5879 5878 5877 5877 5876 5875 5875 5875 5874
5911 5914 5916 5918 5919 5918 5916 5916 5917 5916 5915 5914 5913 5912 5911 5910 5909 5908 5906 5905 5903 5902 5900 5898 5896 5895 5893 5892 5891 5890 5889 5888 5887 5886 5885 5883 5882 5880 5879 5877 5876 5875 5875 5874 5873 5872 5871 5871 5870
5907 5909 5911 5913 5913 5914 5913 5912 5912 5912 5911 5910 5910 5909 5908 5907 5906 5905 5904 5902 5901 5899 5898 5896 5894 5892 5891 5889 5888 5887 5886 5885 5884 5883 5882 5880 5879 5878 5876 5874 5873 5872 5871 5870 5869 5868 5867 5866 5865
5902 5904 5906 5907 5908 5909 5910 5909 5909 5908 5907 5907 5906 5905 5904 5904 5903 5902 5900 5899 5898 5897 5895 5893 5892 5890 5888 5887 5886 5884 5883 5882 5881 5880 5878 5877 5875 5874 5873 5871 5870 5868 5867 5865 5864 5863 5862 5861 5861
5897 5899 5900 5902 5903 5904 5906 5908 5904 5903 5903 5902 5902 5901 5900 5900 5899 5898 5897 5896 5894 5893 5892 5890 5888 5887 5885 5884 5883 5881 5880 5878 5877 5876 5874 5873 5871 5870 5868 5867 5865 5864 5862 5861 5859 5858 5857 5856 5855
5891 5893 5895 5897 5897 5898 5899 5903 5898 5897 5898 5897 5897 5896 5896 5895 5895 5894 5893 5892 5890 5889 5888 5886 5885 5883 5882 5880 5879 5877 5876 5874 5873 5871 5870 5868 5867 5865 5863 5861 5860 5858 5857 5856 5854 5853 5851 5850 5850